Regional Weather Roundup
Issued by NWS

Home | Current Version | Previous Version | Graphics & Text | Print | Product List | Glossary On
Versions: 1 2 3 4 5 6 7 8 9 10 11 12 13 14 15 16 17 18 19 20 21 22 23 24 25 26 27 28 29 30 31 32 33 34 35 36 37 38 39 40 41 42 43 44 45 46 47 48 49 50
000
ASUS43 KDMX 261106
RWRIA

WEATHER ROUNDUP FOR IOWA
NATIONAL WEATHER SERVICE DES MOINES IA
600 AM CDT FRI MAY 26 2017

NOTE: "FAIR" INDICATES FEW OR NO CLOUDS BELOW 12,000 FEET WITH NO
SIGNIFICANT WEATHER AND/OR OBSTRUCTIONS TO VISIBILITY.

* - THESE STATIONS ARE NOT NWS STATIONS...THUS NOT UNDER NWS
QUALITY CONTROL.  THEY ALSO DO NOT REPORT WEATHER SUCH
AS PRECIPITATION OR FOG.

IAZ001>003-012>014-020>022-031>034-043>046-261200-
   NORTHWEST IOWA

CITY           SKY/WX    TMP DP  RH WIND       PRES   REMARKS
CARROLL *      MOCLDY    59  55  88 SE3       29.67S
CHEROKEE *     CLOUDY    58  56  91 CALM      29.68R
DENISON *      MOCLDY    61  54  77 CALM      29.67S
LE MARS *      CLOUDY    54  54 100 MISG      29.69R
ORANGE CITY *  CLOUDY    57  55  94 CALM      29.69R
SHELDON *      CLOUDY    55  52  88 CALM      29.68R
SIOUX CITY     CLOUDY    57  56  96 NW5       29.68R
SPENCER        CLOUDY    59  54  83 CALM      29.69R
STORM LAKE *   CLOUDY    59  54  82 SE6       29.68R
$$

IAZ055>058-069>071-079>083-090>094-261200-
   SOUTHWEST IOWA

CITY           SKY/WX    TMP DP  RH WIND       PRES   REMARKS
ATLANTIC *     CLOUDY    59  55  88 NE3       29.66R
AUDUBON *      CLOUDY    59  54  82 CALM      29.68R
CLARINDA *       N/A     59  57  94 CALM      29.67R
COUNCIL BLFS * CLOUDY    61  59  94 CALM      29.67R
CRESTON *      CLOUDY    59  55  88 NE5       29.66F
HARLAN  *      MOCLDY    61  57  88 CALM      29.69R
LAMONI         CLOUDY    60  54  80 E3        29.64R
RED OAK *      CLOUDY    61  55  82 CALM      29.65S
SHENANDOAH *   CLOUDY    61  57  88 CALM      29.66R
$$

IAZ047>049-059>061-072>074-084-261200-
   CENTRAL IOWA

CITY           SKY/WX    TMP DP  RH WIND       PRES   REMARKS
AMES           CLOUDY    58  53  84 CALM      29.68F
ANKENY *       CLOUDY    61  54  77 SE7       29.69R
BOONE *        CLOUDY    57  55  94 E6        29.68R
CHARITON *     MOCLDY    59  54  82 NE5       29.66F
DES MOINES     CLOUDY    61  53  75 E8        29.67S
GRINNELL*      MOCLDY    58  52  79 E7        29.72R
KNOXVILLE *    CLOUDY    59  52  77 E10       29.67S
MARSHALLTOWN   PTCLDY    57  53  86 E9        29.69F
NEWTON *       MOCLDY    59  52  77 E14G20    29.69R
PELLA *        PTCLDY    60  52  76 SE9       29.70S
PERRY *        MOCLDY    58  55  88 SE7       29.68R
$$

IAZ004>006-015-016-023>025-035-036-261200-
   NORTH CENTRAL IOWA

CITY           SKY/WX    TMP DP  RH WIND       PRES   REMARKS
ALGONA *       CLOUDY    59  52  77 SE9       29.69F
CLARION *      PTCLDY    57  54  88 SE12      29.69F
ESTHERVILLE    CLOUDY    57  54  89 S7        29.68R
FORT DODGE *   CLOUDY    54  50  87 E5        29.69S
MASON CITY     PTCLDY    52  49  89 S6        29.73S
FOREST CITY *  CLOUDY    54  45  71 SE3       29.71S
WEBSTER CITY * MOCLDY    55  52  88 E7        29.67F
IOWA FALLS *     N/A     57  53  84 E5        29.72S
$$

IAZ007>011-017>019-026>030-037>042-050>054-066-261200-
   NORTHEAST IOWA

CITY           SKY/WX    TMP DP  RH WIND       PRES   REMARKS
CEDAR RAPIDS   MOCLDY    57  56  96 E12       29.72F
CHARLES CITY * CLOUDY    55  54  94 SE9       29.72F
CLINTON *      PTCLDY    57  55  93 E7        29.78F
DECORAH *      CLEAR     55  54  94 SE6       29.74S
DUBUQUE        PTCLDY    56  53  90 SE9       29.78F
MONTICELLO *   CLOUDY    57  55  94 E8        29.75F
OELWEIN *      CLOUDY    55  55 100 SE8       29.74F
WATERLOO       CLOUDY    57  53  86 E5        29.71F
$$

IAZ064-065-067-068-078-261200-
   EAST CENTRAL IOWA

CITY           SKY/WX    TMP DP  RH WIND       PRES   REMARKS
DAVENPORT      PTCLDY    56  54  93 SE7       29.79S
IOWA CITY      PTCLDY    61  54  77 E8        29.75F
MT. PLEASANT * CLEAR     58  52  80 E8        29.73S
MUSCATINE *    CLEAR     55  52  88 CALM      29.75F
QUAD CITIES    PTCLDY    56  53  90 E7        29.77S
$$

IAZ062-063-075>077-085>089-095>099-261200-
   SOUTHEAST IOWA

CITY           SKY/WX    TMP DP  RH WIND       PRES   REMARKS
BURLINGTON     CLOUDY    59  54  83 E7        29.74F
FAIRFIELD *    CLOUDY    57  52  82 SE6       29.72R
FORT MADISON * PTCLDY    61  54  77 E7        29.73F
KEOKUK *       CLEAR     59  54  82 SE6       29.72S
OSKALOOSA *    MOCLDY    58  53  81 E9        29.71S
CENTERVILLE *    N/A     59  55  88 CALM      29.65F
OTTUMWA        MOCLDY    59  54  83 SE7       29.71R
WASHINGTON *   PTCLDY    59  54  82 E10       29.74S
$$

ABBREVIATIONS USED IN REMARKS
   TC - TEMPERATURES IN CELSIUS
  WCI - WIND CHILL INDEX
   HX - HEAT INDEX
  VSB - VISIBILITY
$$




USA.gov is the U.S. government's official web portal to all federal, state and local government web resources and services.